Simultaneous Nadir Overpasses (SNOs) Predictions

Prediction of SNOs between GOES-16 and AQUA Satellite Orbit:

Table of predicted SNOs for the next 14.0 days since TLE Epoch: 8/28/2020
Index Date Time (GOES-16) GOES-16 Lat,Lon AQUA Lat,Lon Distance(km) Time Diff (sec)
1 08/30/2020 18:23:19 0.06, -75.19 0.78, -71.68 398.31 80
2 08/31/2020 06:44:33 -0.06, -75.19 0.32, -76.83 187.99 80
3 09/02/2020 06:29:42 -0.06, -75.19 -0.33, -73.88 148.68 80
4 09/02/2020 18:51:07 0.06, -75.19 -0.75, -79.08 441.76 80
5 09/04/2020 06:17:31 -0.06, -75.20 -0.99, -70.93 486.16 80
6 09/04/2020 18:38:55 0.06, -75.21 -0.16, -76.12 104.11 80
7 09/06/2020 18:29:24 0.06, -75.23 0.50, -73.17 234.18 80
8 09/07/2020 06:50:39 -0.07, -75.23 0.60, -78.32 351.28 80
9 09/09/2020 06:38:28 -0.07, -75.26 -0.06, -75.37 12.88 80
10 09/11/2020 06:23:36 -0.08, -75.28 -0.67, -72.41 325.98 80
11 09/11/2020 18:45:01 0.08, -75.28 -0.41, -77.61 264.15 80
